Year,Month,Day,Hour,Minute,Value (Times are PST for windspeed in km/hr)
2019,10,29,00,00,8.40
2019,10,29,00,01,7.90
2019,10,29,00,02,8.80
2019,10,29,00,03,7.90
2019,10,29,00,04,5.10
2019,10,29,00,05,6.60
2019,10,29,00,06,8.10
2019,10,29,00,07,7.40
2019,10,29,00,08,7.00
2019,10,29,00,09,7.20
2019,10,29,00,10,10.80
2019,10,29,00,11,7.40
2019,10,29,00,12,6.70
2019,10,29,00,13,6.10
2019,10,29,00,14,7.20
2019,10,29,00,15,7.40
2019,10,29,00,16,8.90
2019,10,29,00,17,10.00
2019,10,29,00,18,9.20
2019,10,29,00,19,9.60
2019,10,29,00,20,8.50
2019,10,29,00,21,12.50
2019,10,29,00,22,11.10
2019,10,29,00,23,9.00
2019,10,29,00,24,9.10
2019,10,29,00,25,10.70
2019,10,29,00,26,11.70
2019,10,29,00,27,8.10
2019,10,29,00,28,10.70
2019,10,29,00,29,9.00
2019,10,29,00,30,11.70
2019,10,29,00,31,10.50
2019,10,29,00,32,12.70
2019,10,29,00,33,9.90
2019,10,29,00,34,9.70
2019,10,29,00,35,10.60
2019,10,29,00,36,9.80
2019,10,29,00,37,10.80
2019,10,29,00,38,10.90
2019,10,29,00,39,10.70
2019,10,29,00,40,10.20
2019,10,29,00,41,10.10
2019,10,29,00,42,10.50
2019,10,29,00,43,10.80
2019,10,29,00,44,11.60
2019,10,29,00,45,11.00
2019,10,29,00,46,11.30
2019,10,29,00,47,12.10
2019,10,29,00,48,10.40
2019,10,29,00,49,10.90
2019,10,29,00,50,11.40
2019,10,29,00,51,9.70
2019,10,29,00,52,11.70
2019,10,29,00,53,11.50
2019,10,29,00,54,11.10
2019,10,29,00,55,9.80
2019,10,29,00,56,9.40
2019,10,29,00,57,9.70
2019,10,29,00,58,11.40
2019,10,29,00,59,12.70
2019,10,29,01,00,11.60
2019,10,29,01,01,13.60
2019,10,29,01,02,10.80
2019,10,29,01,03,11.00
2019,10,29,01,04,10.10
2019,10,29,01,05,11.20
2019,10,29,01,06,11.10
2019,10,29,01,07,10.40
2019,10,29,01,08,10.80
2019,10,29,01,09,9.90
2019,10,29,01,10,10.00
2019,10,29,01,11,9.20
2019,10,29,01,12,10.70
2019,10,29,01,13,9.90
2019,10,29,01,14,9.90
2019,10,29,01,15,10.20
2019,10,29,01,16,10.60
2019,10,29,01,17,11.40
2019,10,29,01,18,12.10
2019,10,29,01,19,12.60
2019,10,29,01,20,14.60
2019,10,29,01,21,12.30
2019,10,29,01,22,11.40
2019,10,29,01,23,11.90
2019,10,29,01,24,11.00
2019,10,29,01,25,12.50
2019,10,29,01,26,11.30
2019,10,29,01,27,9.70
2019,10,29,01,28,10.10
2019,10,29,01,29,10.80
2019,10,29,01,30,10.40
2019,10,29,01,31,9.90
2019,10,29,01,32,10.00
2019,10,29,01,33,10.20
2019,10,29,01,34,10.90
2019,10,29,01,35,12.20
2019,10,29,01,36,10.60
2019,10,29,01,37,13.50
2019,10,29,01,38,11.40
2019,10,29,01,39,10.40
2019,10,29,01,40,10.30
2019,10,29,01,41,11.10
2019,10,29,01,42,10.80
2019,10,29,01,43,12.00
2019,10,29,01,44,11.80
2019,10,29,01,45,12.00
2019,10,29,01,46,11.10
2019,10,29,01,47,10.80
2019,10,29,01,48,11.10
2019,10,29,01,49,10.40
2019,10,29,01,50,11.00
2019,10,29,01,51,11.60
2019,10,29,01,52,11.10
2019,10,29,01,53,10.80
2019,10,29,01,54,10.30
2019,10,29,01,55,13.30
2019,10,29,01,56,10.90
2019,10,29,01,57,12.10
2019,10,29,01,58,13.80
2019,10,29,01,59,11.10
2019,10,29,02,00,13.30
2019,10,29,02,01,12.20
2019,10,29,02,02,11.40
2019,10,29,02,03,11.20
2019,10,29,02,04,10.60
2019,10,29,02,05,8.70
2019,10,29,02,06,9.90
2019,10,29,02,07,11.90
2019,10,29,02,08,12.30
2019,10,29,02,09,12.30
2019,10,29,02,10,14.40
2019,10,29,02,11,13.70
2019,10,29,02,12,15.10
2019,10,29,02,13,13.40
2019,10,29,02,14,13.40
2019,10,29,02,15,10.50
2019,10,29,02,16,10.60
2019,10,29,02,17,11.30
2019,10,29,02,18,11.80
2019,10,29,02,19,11.70
2019,10,29,02,20,12.20
2019,10,29,02,21,11.40
2019,10,29,02,22,11.80
2019,10,29,02,23,11.70
2019,10,29,02,24,12.10
2019,10,29,02,25,12.60
2019,10,29,02,26,13.50
2019,10,29,02,27,13.20
2019,10,29,02,28,12.00
2019,10,29,02,29,12.30
2019,10,29,02,30,12.30
2019,10,29,02,31,12.50
2019,10,29,02,32,12.20
2019,10,29,02,33,12.30
2019,10,29,02,34,13.00
2019,10,29,02,35,13.20
2019,10,29,02,36,13.40
2019,10,29,02,37,13.10
2019,10,29,02,38,12.40
2019,10,29,02,39,12.80
2019,10,29,02,40,15.50
2019,10,29,02,41,13.50
2019,10,29,02,42,13.30
2019,10,29,02,43,13.30
2019,10,29,02,44,15.30
2019,10,29,02,45,15.00
2019,10,29,02,46,15.70
2019,10,29,02,47,12.50
2019,10,29,02,48,12.70
2019,10,29,02,49,14.40
2019,10,29,02,50,11.90
2019,10,29,02,51,12.20
2019,10,29,02,52,12.60
2019,10,29,02,53,11.90
2019,10,29,02,54,11.90
2019,10,29,02,55,10.70
2019,10,29,02,56,12.00
2019,10,29,02,57,11.80
2019,10,29,02,58,12.90
2019,10,29,02,59,12.00
2019,10,29,03,00,11.00
2019,10,29,03,01,12.40
2019,10,29,03,02,14.70
2019,10,29,03,03,14.70
2019,10,29,03,04,12.80
2019,10,29,03,05,10.00
2019,10,29,03,06,10.10
2019,10,29,03,07,11.30
2019,10,29,03,08,12.40
2019,10,29,03,09,9.80
2019,10,29,03,10,9.70
2019,10,29,03,11,11.70
2019,10,29,03,12,11.50
2019,10,29,03,13,12.10
2019,10,29,03,14,10.20
2019,10,29,03,15,11.00
2019,10,29,03,16,11.70
2019,10,29,03,17,11.60
2019,10,29,03,18,10.70
2019,10,29,03,19,10.00
2019,10,29,03,20,10.30
2019,10,29,03,21,11.00
2019,10,29,03,22,13.00
2019,10,29,03,23,13.80
2019,10,29,03,24,13.30
2019,10,29,03,25,13.00
2019,10,29,03,26,12.20
2019,10,29,03,27,12.00
2019,10,29,03,28,11.20
2019,10,29,03,29,11.60
2019,10,29,03,30,12.50
2019,10,29,03,31,10.20
2019,10,29,03,32,9.70
2019,10,29,03,33,9.50
2019,10,29,03,34,9.90
2019,10,29,03,35,10.00
2019,10,29,03,36,9.50
2019,10,29,03,37,10.30
2019,10,29,03,38,12.50
2019,10,29,03,39,12.10
2019,10,29,03,40,10.30
2019,10,29,03,41,10.30
2019,10,29,03,42,9.70
2019,10,29,03,43,9.50
2019,10,29,03,44,9.50
2019,10,29,03,45,10.00
2019,10,29,03,46,10.60
2019,10,29,03,47,8.70
2019,10,29,03,48,8.70
2019,10,29,03,49,10.00
2019,10,29,03,50,9.20
2019,10,29,03,51,9.30
2019,10,29,03,52,8.20
2019,10,29,03,53,9.30
2019,10,29,03,54,9.20
2019,10,29,03,55,10.10
2019,10,29,03,56,10.80
2019,10,29,03,57,10.30
2019,10,29,03,58,10.50
2019,10,29,03,59,10.90
2019,10,29,04,00,9.90
2019,10,29,04,01,10.90
2019,10,29,04,02,12.10
2019,10,29,04,03,10.90
2019,10,29,04,04,9.10
2019,10,29,04,05,9.10
2019,10,29,04,06,10.10
2019,10,29,04,07,8.60
2019,10,29,04,08,8.40
2019,10,29,04,09,9.40
2019,10,29,04,10,9.00
2019,10,29,04,11,10.80
2019,10,29,04,12,12.50
2019,10,29,04,13,15.30
2019,10,29,04,14,12.90
2019,10,29,04,15,12.60
2019,10,29,04,16,12.10
2019,10,29,04,17,11.20
2019,10,29,04,18,11.70
2019,10,29,04,19,11.50
2019,10,29,04,20,10.60
2019,10,29,04,21,10.40
2019,10,29,04,22,10.40
2019,10,29,04,23,10.90
2019,10,29,04,24,10.20
2019,10,29,04,25,10.10
2019,10,29,04,26,12.70
2019,10,29,04,27,11.40
2019,10,29,04,28,11.70
2019,10,29,04,29,11.50
2019,10,29,04,30,15.00
2019,10,29,04,31,18.10
2019,10,29,04,32,16.70
2019,10,29,04,33,14.70
2019,10,29,04,34,12.90
2019,10,29,04,35,13.70
2019,10,29,04,36,13.70
2019,10,29,04,37,12.80
2019,10,29,04,38,12.20
2019,10,29,04,39,11.70
2019,10,29,04,40,11.60
2019,10,29,04,41,10.40
2019,10,29,04,42,13.20
2019,10,29,04,43,12.20
2019,10,29,04,44,10.70
2019,10,29,04,45,13.30
2019,10,29,04,46,18.30
2019,10,29,04,47,12.60
2019,10,29,04,48,12.00
2019,10,29,04,49,11.90
2019,10,29,04,50,9.70
2019,10,29,04,51,10.70
2019,10,29,04,52,12.20
2019,10,29,04,53,10.70
2019,10,29,04,54,10.60
2019,10,29,04,55,10.20
2019,10,29,04,56,10.50
2019,10,29,04,57,10.50
2019,10,29,04,58,10.00
2019,10,29,04,59,7.80
2019,10,29,05,00,8.50
2019,10,29,05,01,8.80
2019,10,29,05,02,8.50
2019,10,29,05,03,9.40
2019,10,29,05,04,8.10
2019,10,29,05,05,7.80
2019,10,29,05,06,9.00
2019,10,29,05,07,9.10
2019,10,29,05,08,9.50
2019,10,29,05,09,9.70
2019,10,29,05,10,8.70
2019,10,29,05,11,8.50
2019,10,29,05,12,8.90
2019,10,29,05,13,9.40
2019,10,29,05,14,8.50
2019,10,29,05,15,9.10
2019,10,29,05,16,9.20
2019,10,29,05,17,8.00
2019,10,29,05,18,8.30
2019,10,29,05,19,13.10
2019,10,29,05,20,8.90
2019,10,29,05,21,8.50
2019,10,29,05,22,9.10
2019,10,29,05,23,8.90
2019,10,29,05,24,7.80
2019,10,29,05,25,7.90
2019,10,29,05,26,9.50
2019,10,29,05,27,12.30
2019,10,29,05,28,13.40
2019,10,29,05,29,10.70
2019,10,29,05,30,10.10
2019,10,29,05,31,9.30
2019,10,29,05,32,10.00
2019,10,29,05,33,9.30
2019,10,29,05,34,10.50
2019,10,29,05,35,9.40
2019,10,29,05,36,9.00
2019,10,29,05,37,9.10
2019,10,29,05,38,11.40
2019,10,29,05,39,9.60
2019,10,29,05,40,10.60
2019,10,29,05,41,10.20
2019,10,29,05,42,9.60
2019,10,29,05,43,9.20
2019,10,29,05,44,11.30
2019,10,29,05,45,11.70
2019,10,29,05,46,12.00
2019,10,29,05,47,12.80
2019,10,29,05,48,14.90
2019,10,29,05,49,14.00
2019,10,29,05,50,11.40
2019,10,29,05,51,13.70
2019,10,29,05,52,16.00
2019,10,29,05,53,12.80
2019,10,29,05,54,11.20
2019,10,29,05,55,12.90
2019,10,29,05,56,11.70
2019,10,29,05,57,13.60
2019,10,29,05,58,16.80
2019,10,29,05,59,13.60
2019,10,29,06,00,12.70
2019,10,29,06,01,10.30
2019,10,29,06,02,14.20
2019,10,29,06,03,13.90
2019,10,29,06,04,14.00
2019,10,29,06,05,12.80
2019,10,29,06,06,15.50
2019,10,29,06,07,17.20
2019,10,29,06,08,13.10
2019,10,29,06,09,16.40
2019,10,29,06,10,14.70
2019,10,29,06,11,13.70
2019,10,29,06,12,14.00
2019,10,29,06,13,14.30
2019,10,29,06,14,10.20
2019,10,29,06,15,15.50
2019,10,29,06,16,13.70
2019,10,29,06,17,11.80
2019,10,29,06,18,14.30
2019,10,29,06,19,9.90
2019,10,29,06,20,11.90
2019,10,29,06,21,14.60
2019,10,29,06,22,13.90
2019,10,29,06,23,13.60
2019,10,29,06,24,16.50
2019,10,29,06,25,11.80
2019,10,29,06,26,12.60
2019,10,29,06,27,12.60
2019,10,29,06,28,16.40
2019,10,29,06,29,13.70
2019,10,29,06,30,14.40
2019,10,29,06,31,15.30
2019,10,29,06,32,12.80
2019,10,29,06,33,11.70
2019,10,29,06,34,10.90
2019,10,29,06,35,14.90
2019,10,29,06,36,14.20
2019,10,29,06,37,15.70
2019,10,29,06,38,11.40
2019,10,29,06,39,13.60
2019,10,29,06,40,12.50
2019,10,29,06,41,18.10
2019,10,29,06,42,14.10
2019,10,29,06,43,15.80
2019,10,29,06,44,13.90
2019,10,29,06,45,15.70
2019,10,29,06,46,16.50
2019,10,29,06,47,14.80
2019,10,29,06,48,16.20
2019,10,29,06,49,14.10
2019,10,29,06,50,14.80
2019,10,29,06,51,13.70
2019,10,29,06,52,15.60
2019,10,29,06,53,11.40
2019,10,29,06,54,10.00
2019,10,29,06,55,16.20
2019,10,29,06,56,16.60
2019,10,29,06,57,15.60
2019,10,29,06,58,16.60
2019,10,29,06,59,17.20
2019,10,29,07,00,13.70
2019,10,29,07,01,16.40
2019,10,29,07,02,12.40
2019,10,29,07,03,12.30
2019,10,29,07,04,14.30
2019,10,29,07,05,13.30
2019,10,29,07,06,14.40
2019,10,29,07,07,14.80
2019,10,29,07,08,12.70
2019,10,29,07,09,13.30
2019,10,29,07,10,10.40
2019,10,29,07,11,12.10
2019,10,29,07,12,12.80
2019,10,29,07,13,11.30
2019,10,29,07,14,10.50
2019,10,29,07,15,17.10
2019,10,29,07,16,15.30
2019,10,29,07,17,16.70
2019,10,29,07,18,14.50
2019,10,29,07,19,14.60
2019,10,29,07,20,16.10
2019,10,29,07,21,17.50
2019,10,29,07,22,15.60
2019,10,29,07,23,14.30
2019,10,29,07,24,16.40
2019,10,29,07,25,15.80
2019,10,29,07,26,15.30
2019,10,29,07,27,13.20
2019,10,29,07,28,16.50
2019,10,29,07,29,18.20
2019,10,29,07,30,15.20
2019,10,29,07,31,16.50
2019,10,29,07,32,14.00
2019,10,29,07,33,13.00
2019,10,29,07,34,13.20
2019,10,29,07,35,13.20
2019,10,29,07,36,18.40
2019,10,29,07,37,17.90
2019,10,29,07,38,16.30
2019,10,29,07,39,19.90
2019,10,29,07,40,16.70
2019,10,29,07,41,20.50
2019,10,29,07,42,18.70
2019,10,29,07,43,18.80
2019,10,29,07,44,15.80
2019,10,29,07,45,14.70
2019,10,29,07,46,12.50
2019,10,29,07,47,15.80
2019,10,29,07,48,15.90
2019,10,29,07,49,13.60
2019,10,29,07,50,17.50
2019,10,29,07,51,18.80
2019,10,29,07,52,16.40
2019,10,29,07,53,18.90
2019,10,29,07,54,18.50
2019,10,29,07,55,15.80
2019,10,29,07,56,19.40
2019,10,29,07,57,16.30
2019,10,29,07,58,18.70
2019,10,29,07,59,18.20
2019,10,29,08,00,15.60
2019,10,29,08,01,17.90
2019,10,29,08,02,18.70
2019,10,29,08,03,20.20
2019,10,29,08,04,19.80
2019,10,29,08,05,17.80
2019,10,29,08,06,17.40
2019,10,29,08,07,15.90
2019,10,29,08,08,18.90
2019,10,29,08,09,18.80
2019,10,29,08,10,18.30
2019,10,29,08,11,15.90
2019,10,29,08,12,17.60
2019,10,29,08,13,15.10
2019,10,29,08,14,15.70
2019,10,29,08,15,14.50
2019,10,29,08,16,12.10
2019,10,29,08,17,13.90
2019,10,29,08,18,15.50
2019,10,29,08,19,15.60
2019,10,29,08,20,20.40
2019,10,29,08,21,19.40
2019,10,29,08,22,22.20
2019,10,29,08,23,17.80
2019,10,29,08,24,19.80
2019,10,29,08,25,17.00
2019,10,29,08,26,19.10
2019,10,29,08,27,14.40
2019,10,29,08,28,15.30
2019,10,29,08,29,15.90
2019,10,29,08,30,17.80
2019,10,29,08,31,16.70
2019,10,29,08,32,15.60
2019,10,29,08,33,12.20
2019,10,29,08,34,17.00
2019,10,29,08,35,16.50
2019,10,29,08,36,15.70
2019,10,29,08,37,15.20
2019,10,29,08,38,15.30
2019,10,29,08,39,16.60
2019,10,29,08,40,17.90
2019,10,29,08,41,19.50
2019,10,29,08,42,18.10
2019,10,29,08,43,17.10
2019,10,29,08,44,17.70
2019,10,29,08,45,15.80
2019,10,29,08,46,18.20
2019,10,29,08,47,15.50
2019,10,29,08,48,17.60
2019,10,29,08,49,17.70
2019,10,29,08,50,18.20
2019,10,29,08,51,14.80
2019,10,29,08,52,18.00
2019,10,29,08,53,20.20
2019,10,29,08,54,18.90
2019,10,29,08,55,18.90
2019,10,29,08,56,18.50
2019,10,29,08,57,13.90
2019,10,29,08,58,16.40
2019,10,29,08,59,13.50
2019,10,29,09,00,17.20
2019,10,29,09,01,17.80
2019,10,29,09,02,15.70
2019,10,29,09,03,15.00
2019,10,29,09,04,14.40
2019,10,29,09,05,18.20
2019,10,29,09,06,18.80
2019,10,29,09,07,18.10
2019,10,29,09,08,16.10
2019,10,29,09,09,13.80
2019,10,29,09,10,17.70
2019,10,29,09,11,17.60
2019,10,29,09,12,17.60
2019,10,29,09,13,16.80
2019,10,29,09,14,17.10
2019,10,29,09,15,14.30
2019,10,29,09,16,17.20
2019,10,29,09,17,17.30
2019,10,29,09,18,11.90
2019,10,29,09,19,15.60
2019,10,29,09,20,15.90
2019,10,29,09,21,15.70
2019,10,29,09,22,17.50
2019,10,29,09,23,17.50
2019,10,29,09,24,16.00
2019,10,29,09,25,11.60
2019,10,29,09,26,14.20
2019,10,29,09,27,13.90
2019,10,29,09,28,13.80
2019,10,29,09,29,15.50
2019,10,29,09,30,11.50
2019,10,29,09,31,12.10
2019,10,29,09,32,14.00
2019,10,29,09,33,15.10
2019,10,29,09,34,13.40
2019,10,29,09,35,14.50
2019,10,29,09,36,14.10
2019,10,29,09,37,9.50
2019,10,29,09,38,13.90
2019,10,29,09,39,13.10
2019,10,29,09,40,11.90
2019,10,29,09,41,14.10
2019,10,29,09,42,13.00
2019,10,29,09,43,11.70
2019,10,29,09,44,11.70
2019,10,29,09,45,9.80
2019,10,29,09,46,10.70
2019,10,29,09,47,12.00
2019,10,29,09,48,11.80
2019,10,29,09,49,9.90
2019,10,29,09,50,11.70
2019,10,29,09,51,12.20
2019,10,29,09,52,11.10
2019,10,29,09,53,10.70
2019,10,29,09,54,10.20
2019,10,29,09,55,10.40
2019,10,29,09,56,9.70
2019,10,29,09,57,6.70
2019,10,29,09,58,8.60
2019,10,29,09,59,8.00
2019,10,29,10,00,8.20
2019,10,29,10,01,9.50
2019,10,29,10,02,6.50
2019,10,29,10,03,7.90
2019,10,29,10,04,9.70
2019,10,29,10,05,7.80
2019,10,29,10,06,6.80
2019,10,29,10,07,8.00
2019,10,29,10,08,8.50
2019,10,29,10,09,7.30
2019,10,29,10,10,6.30
2019,10,29,10,11,5.60
2019,10,29,10,12,7.50
2019,10,29,10,13,6.30
2019,10,29,10,14,6.10
2019,10,29,10,15,3.60
2019,10,29,10,16,4.20
2019,10,29,10,17,3.80
2019,10,29,10,18,3.00
2019,10,29,10,19,3.20
2019,10,29,10,20,4.80
2019,10,29,10,21,4.40
2019,10,29,10,22,4.70
2019,10,29,10,23,4.80
2019,10,29,10,24,3.90
2019,10,29,10,25,4.10
2019,10,29,10,26,4.40
2019,10,29,10,27,4.50
2019,10,29,10,28,3.60
2019,10,29,10,29,2.90
2019,10,29,10,30,3.60
2019,10,29,10,31,3.80
2019,10,29,10,32,3.80
2019,10,29,10,33,3.80
2019,10,29,10,34,3.80
2019,10,29,10,35,3.60
2019,10,29,10,36,2.50
2019,10,29,10,37,3.50
2019,10,29,10,38,4.00
2019,10,29,10,39,3.20
2019,10,29,10,40,4.50
2019,10,29,10,41,4.30
2019,10,29,10,42,2.80
2019,10,29,10,43,1.20
2019,10,29,10,44,3.60
2019,10,29,10,45,4.80
2019,10,29,10,46,4.20
2019,10,29,10,47,3.70
2019,10,29,10,48,3.90
2019,10,29,10,49,3.80
2019,10,29,10,50,5.30
2019,10,29,10,51,4.60
2019,10,29,10,52,4.40
2019,10,29,10,53,3.50
2019,10,29,10,54,2.90
2019,10,29,10,55,2.20
2019,10,29,10,56,1.60
2019,10,29,10,57,2.20
2019,10,29,10,58,5.20
2019,10,29,10,59,4.70
2019,10,29,11,00,4.40
2019,10,29,11,01,5.70
2019,10,29,11,02,5.00
2019,10,29,11,03,3.70
2019,10,29,11,04,3.80
2019,10,29,11,05,5.30
2019,10,29,11,06,4.00
2019,10,29,11,07,5.10
2019,10,29,11,08,5.50
2019,10,29,11,09,5.00
2019,10,29,11,10,5.30
2019,10,29,11,11,5.10
2019,10,29,11,12,4.50
2019,10,29,11,13,4.80
2019,10,29,11,14,4.80
2019,10,29,11,15,3.70
2019,10,29,11,16,2.30
2019,10,29,11,17,2.30
2019,10,29,11,18,4.90
2019,10,29,11,19,4.90
2019,10,29,11,20,3.10
2019,10,29,11,21,2.60
2019,10,29,11,22,2.00
2019,10,29,11,23,2.00
2019,10,29,11,24,4.40
2019,10,29,11,25,6.40
2019,10,29,11,26,4.50
2019,10,29,11,27,4.00
2019,10,29,11,28,4.70
2019,10,29,11,29,4.70
2019,10,29,11,30,4.10
2019,10,29,11,31,4.50
2019,10,29,11,32,4.60
2019,10,29,11,33,4.80
2019,10,29,11,34,5.70
2019,10,29,11,35,6.00
2019,10,29,11,36,5.40
2019,10,29,11,37,6.20
2019,10,29,11,38,4.90
2019,10,29,11,39,5.10
2019,10,29,11,40,5.20
2019,10,29,11,41,5.60
2019,10,29,11,42,5.80
2019,10,29,11,43,5.20
2019,10,29,11,44,6.80
2019,10,29,11,45,7.40
2019,10,29,11,46,7.20
2019,10,29,11,47,6.50
2019,10,29,11,48,6.40
2019,10,29,11,49,6.90
2019,10,29,11,50,6.00
2019,10,29,11,51,5.00
2019,10,29,11,52,6.70
2019,10,29,11,53,5.60
2019,10,29,11,54,5.60
2019,10,29,11,55,5.70
2019,10,29,11,56,6.40
2019,10,29,11,57,5.60
2019,10,29,11,58,5.80
2019,10,29,11,59,5.70
2019,10,29,12,00,5.80
2019,10,29,12,01,6.30
2019,10,29,12,02,5.10
2019,10,29,12,03,3.50
2019,10,29,12,04,2.80
2019,10,29,12,05,3.50
2019,10,29,12,06,2.70
2019,10,29,12,07,4.20
2019,10,29,12,08,5.00
2019,10,29,12,09,4.90
2019,10,29,12,10,3.40
2019,10,29,12,11,1.30
2019,10,29,12,12,2.90
2019,10,29,12,13,5.20
2019,10,29,12,14,1.60
2019,10,29,12,15,2.60
2019,10,29,12,16,2.40
2019,10,29,12,17,2.40
2019,10,29,12,18,1.60
2019,10,29,12,19,0.80
2019,10,29,12,20,4.80
2019,10,29,12,21,2.40
2019,10,29,12,22,1.80
2019,10,29,12,23,4.50
2019,10,29,12,24,2.70
2019,10,29,12,25,0.80
2019,10,29,12,26,0.40
2019,10,29,12,27,0.60
2019,10,29,12,28,2.00
2019,10,29,12,29,2.00
2019,10,29,12,30,1.00
2019,10,29,12,31,3.20
2019,10,29,12,32,1.50
2019,10,29,12,33,1.70
2019,10,29,12,34,0.80
2019,10,29,12,35,0.30
2019,10,29,12,36,2.10
2019,10,29,12,37,2.50
2019,10,29,12,38,2.10
2019,10,29,12,39,2.10
2019,10,29,12,40,0.60
2019,10,29,12,41,0.20
2019,10,29,12,42,1.30
2019,10,29,12,43,1.70
2019,10,29,12,44,2.60
2019,10,29,12,45,0.70
2019,10,29,12,46,2.10
2019,10,29,12,47,1.70
2019,10,29,12,48,0.40
2019,10,29,12,49,4.60
2019,10,29,12,50,4.40
2019,10,29,12,51,1.80
2019,10,29,12,52,1.90
2019,10,29,12,53,1.90
2019,10,29,12,54,1.40
2019,10,29,12,55,2.70
2019,10,29,12,56,1.00
2019,10,29,12,57,0.20
2019,10,29,12,58,2.40
2019,10,29,12,59,2.50
2019,10,29,13,00,0.20
2019,10,29,13,01,1.30
2019,10,29,13,02,3.30
2019,10,29,13,03,1.60
2019,10,29,13,04,2.20
2019,10,29,13,05,3.40
2019,10,29,13,06,1.30
2019,10,29,13,07,1.40
2019,10,29,13,08,2.90
2019,10,29,13,09,1.70
2019,10,29,13,10,5.00
2019,10,29,13,11,3.50
2019,10,29,13,12,2.90
2019,10,29,13,13,2.20
2019,10,29,13,14,1.00
2019,10,29,13,15,0.80
2019,10,29,13,16,2.30
2019,10,29,13,17,2.10
2019,10,29,13,18,2.40
2019,10,29,13,19,2.10
2019,10,29,13,20,3.60
2019,10,29,13,21,1.60
2019,10,29,13,22,2.30
2019,10,29,13,23,2.90
2019,10,29,13,24,1.00
2019,10,29,13,25,1.60
2019,10,29,13,26,3.30
2019,10,29,13,27,3.60
2019,10,29,13,28,3.70
2019,10,29,13,29,4.20
2019,10,29,13,30,2.90
2019,10,29,13,31,1.60
2019,10,29,13,32,5.10
2019,10,29,13,33,4.30
2019,10,29,13,34,2.30
2019,10,29,13,35,1.40
2019,10,29,13,36,2.10
2019,10,29,13,37,2.00
2019,10,29,13,38,3.00
2019,10,29,13,39,2.10
2019,10,29,13,40,6.00
2019,10,29,13,41,4.60
2019,10,29,13,42,5.00
2019,10,29,13,43,3.30
2019,10,29,13,44,3.30
2019,10,29,13,45,2.90
2019,10,29,13,46,4.20
2019,10,29,13,47,4.90
2019,10,29,13,48,5.50
2019,10,29,13,49,3.10
2019,10,29,13,50,2.00
2019,10,29,13,51,2.90
2019,10,29,13,52,4.70
2019,10,29,13,53,3.40
2019,10,29,13,54,4.40
2019,10,29,13,55,1.80
2019,10,29,13,56,2.00
2019,10,29,13,57,1.90
2019,10,29,13,58,0.90
2019,10,29,13,59,0.70
2019,10,29,14,00,2.90
2019,10,29,14,01,3.90
2019,10,29,14,02,2.60
2019,10,29,14,03,1.80
2019,10,29,14,04,3.80
2019,10,29,14,05,2.80
2019,10,29,14,06,3.60
2019,10,29,14,07,3.00
2019,10,29,14,08,4.60
2019,10,29,14,09,2.50
2019,10,29,14,10,3.30
2019,10,29,14,11,4.90
2019,10,29,14,12,2.70
2019,10,29,14,13,1.60
2019,10,29,14,14,1.40
2019,10,29,14,15,0.80
2019,10,29,14,16,1.20
2019,10,29,14,17,1.30
2019,10,29,14,18,2.60
2019,10,29,14,19,2.70
2019,10,29,14,20,1.80
2019,10,29,14,21,2.70
2019,10,29,14,22,2.10
2019,10,29,14,23,1.70
2019,10,29,14,24,0.60
2019,10,29,14,25,1.40
2019,10,29,14,26,1.10
2019,10,29,14,27,0.80
2019,10,29,14,28,1.70
2019,10,29,14,29,2.50
2019,10,29,14,30,1.20
2019,10,29,14,31,0.30
2019,10,29,14,32,0.80
2019,10,29,14,33,0.90
2019,10,29,14,34,3.20
2019,10,29,14,35,4.20
2019,10,29,14,36,2.40
2019,10,29,14,37,2.20
2019,10,29,14,38,0.70
2019,10,29,14,39,0.00
2019,10,29,14,40,1.10
2019,10,29,14,41,1.40
2019,10,29,14,42,0.80
2019,10,29,14,43,0.50
2019,10,29,14,44,2.50
2019,10,29,14,45,2.80
2019,10,29,14,46,5.20
2019,10,29,14,47,2.10
2019,10,29,14,48,1.60
2019,10,29,14,49,1.30
2019,10,29,14,50,0.80
2019,10,29,14,51,0.60
2019,10,29,14,52,1.00
2019,10,29,14,53,1.20
2019,10,29,14,54,0.10
2019,10,29,14,55,0.10
2019,10,29,14,56,0.10
2019,10,29,14,57,0.70
2019,10,29,14,58,1.90
2019,10,29,14,59,0.60
2019,10,29,15,00,0.50
2019,10,29,15,01,2.00
2019,10,29,15,02,1.10
2019,10,29,15,03,2.60
2019,10,29,15,04,0.70
2019,10,29,15,05,1.30
2019,10,29,15,06,2.00
2019,10,29,15,07,1.50
2019,10,29,15,08,3.00
2019,10,29,15,09,2.80
2019,10,29,15,10,1.00
2019,10,29,15,11,0.70
2019,10,29,15,12,1.30
2019,10,29,15,13,0.90
2019,10,29,15,14,0.50
2019,10,29,15,15,0.90
2019,10,29,15,16,2.20
2019,10,29,15,17,1.90
2019,10,29,15,18,1.30
2019,10,29,15,19,0.80
2019,10,29,15,20,0.10
2019,10,29,15,21,0.60
2019,10,29,15,22,1.70
2019,10,29,15,23,1.90
2019,10,29,15,24,0.10
2019,10,29,15,25,0.00
2019,10,29,15,26,0.00
2019,10,29,15,27,0.00
2019,10,29,15,28,0.00
2019,10,29,15,29,0.00
2019,10,29,15,30,0.70
2019,10,29,15,31,0.60
2019,10,29,15,32,0.90
2019,10,29,15,33,1.30
2019,10,29,15,34,1.00
2019,10,29,15,35,0.00
2019,10,29,15,36,0.00
2019,10,29,15,37,0.00
2019,10,29,15,38,0.10
2019,10,29,15,39,0.00
2019,10,29,15,40,0.00
2019,10,29,15,41,0.30
2019,10,29,15,42,2.30
2019,10,29,15,43,2.00
2019,10,29,15,44,0.80
2019,10,29,15,45,2.00
2019,10,29,15,46,0.60
2019,10,29,15,47,1.40
2019,10,29,15,48,2.20
2019,10,29,15,49,2.00
2019,10,29,15,50,2.40
2019,10,29,15,51,1.50
2019,10,29,15,52,0.90
2019,10,29,15,53,1.30
2019,10,29,15,54,1.20
2019,10,29,15,55,1.60
2019,10,29,15,56,0.20
2019,10,29,15,57,0.50
2019,10,29,15,58,0.80
2019,10,29,15,59,0.40
2019,10,29,16,00,0.00
2019,10,29,16,01,0.10
2019,10,29,16,02,0.00
2019,10,29,16,03,1.00
2019,10,29,16,04,0.50
2019,10,29,16,05,0.10
2019,10,29,16,06,0.20
2019,10,29,16,07,0.80
2019,10,29,16,08,1.20
2019,10,29,16,09,0.70
2019,10,29,16,10,2.00
2019,10,29,16,11,1.00
2019,10,29,16,12,0.80
2019,10,29,16,13,0.00
2019,10,29,16,14,0.00
2019,10,29,16,15,0.10
2019,10,29,16,16,0.00
2019,10,29,16,17,0.00
2019,10,29,16,18,0.00
2019,10,29,16,19,0.00
2019,10,29,16,20,0.10
2019,10,29,16,21,0.00
2019,10,29,16,22,0.10
2019,10,29,16,23,0.10
2019,10,29,16,24,1.40
2019,10,29,16,25,2.10
2019,10,29,16,26,1.80
2019,10,29,16,27,2.00
2019,10,29,16,28,2.00
2019,10,29,16,29,1.20
2019,10,29,16,30,1.40
2019,10,29,16,31,1.40
2019,10,29,16,32,1.30
2019,10,29,16,33,1.80
2019,10,29,16,34,1.90
2019,10,29,16,35,2.20
2019,10,29,16,36,2.50
2019,10,29,16,37,2.30
2019,10,29,16,38,1.30
2019,10,29,16,39,0.30
2019,10,29,16,40,0.80
2019,10,29,16,41,0.00
2019,10,29,16,42,0.00
2019,10,29,16,43,0.00
2019,10,29,16,44,0.30
2019,10,29,16,45,0.00
2019,10,29,16,46,0.00
2019,10,29,16,47,0.00
2019,10,29,16,48,0.00
2019,10,29,16,49,0.00
2019,10,29,16,50,0.00
2019,10,29,16,51,0.00
2019,10,29,16,52,0.00
2019,10,29,16,53,0.00
2019,10,29,16,54,0.00
2019,10,29,16,55,0.00
2019,10,29,16,56,0.00
2019,10,29,16,57,0.00
2019,10,29,16,58,0.00
2019,10,29,16,59,0.00
2019,10,29,17,00,0.00
2019,10,29,17,01,0.00
2019,10,29,17,02,0.00
2019,10,29,17,03,0.00
2019,10,29,17,04,0.00
2019,10,29,17,05,0.00
2019,10,29,17,06,0.00
2019,10,29,17,07,0.00
2019,10,29,17,08,0.10
2019,10,29,17,09,0.10
2019,10,29,17,10,0.00
2019,10,29,17,11,0.00
2019,10,29,17,12,0.00
2019,10,29,17,13,0.00
2019,10,29,17,14,0.00
2019,10,29,17,15,0.00
2019,10,29,17,16,0.20
2019,10,29,17,17,0.30
2019,10,29,17,18,0.00
2019,10,29,17,19,0.00
2019,10,29,17,20,0.00
2019,10,29,17,21,0.00
2019,10,29,17,22,0.00
2019,10,29,17,23,0.00
2019,10,29,17,24,0.00
2019,10,29,17,25,0.00
2019,10,29,17,26,0.00
2019,10,29,17,27,0.00
2019,10,29,17,28,0.00
2019,10,29,17,29,0.00
2019,10,29,17,30,0.00
2019,10,29,17,31,0.00
2019,10,29,17,32,0.00
2019,10,29,17,33,1.20
2019,10,29,17,34,1.40
2019,10,29,17,35,0.50
2019,10,29,17,36,0.00
2019,10,29,17,37,0.00
2019,10,29,17,38,0.10
2019,10,29,17,39,0.00
2019,10,29,17,40,0.00
2019,10,29,17,41,0.20
2019,10,29,17,42,0.10
2019,10,29,17,43,0.30
2019,10,29,17,44,0.00